This demonstration page uses our WeatherBlox Daily Observations layout. Learn more.

Hourly Observations for April 29, 2017

Temp ( °F °C ) Dew Point ( °F °C ) Humidity (%) Winds ( mph kmh ) Pressure ( in mb ) Visibility ( mi km ) Precip ( " mm )
12:15 am 00:15 Cloudy 38 3.1 35 1.9 92 92 NNE 12 19 30.15 1021 10 16.0934 0 0
12:35 am 00:35 Cloudy 38 3.1 35 1.7 91 91 NNE 15 24 30.18 1022 10 16.0934 0 0
12:55 am 00:55 Cloudy 38 3.2 35 1.7 90 90 NNE 16 26 30.15 1021 10 16.0934 0 0
1:15 am 01:15 Cloudy 38 3.1 35 1.8 91 91 NNE 15 24 30.15 1021 7 11.26538 0 0
1:35 am 01:35 Cloudy 38 3.2 35 1.5 89 89 NNE 18 30 30.15 1021 10 16.0934 0 0
1:55 am 01:55 Cloudy with Mist and Fog 37 3 35 1.7 91 91 NNE 15 24 30.09 1019 5 8.0467 0 0
2:15 am 02:15 Cloudy 37 3 35 1.8 92 92 NNE 17 28 30.09 1019 10 16.0934 0 0
2:35 am 02:35 Cloudy 37 3 35 1.7 91 91 NNE 17 28 30.09 1019 7 11.26538 0 0
2:55 am 02:55 Cloudy 38 3.1 35 1.8 91 91 NNE 21 33 30.09 1019 10 16.0934 0 0
3:15 am 03:15 Cloudy 38 3.1 35 1.7 91 91 NNE 20 31 30.09 1019 10 16.0934 0 0
3:35 am 03:35 Cloudy 38 3.2 35 1.5 89 89 NNE 22 35 30.09 1019 10 16.0934 0 0
3:55 am 03:55 Cloudy 38 3.3 35 1.4 88 88 N 13 20 30.12 1020 10 16.0934 0 0
4:15 am 04:15 Cloudy 38 3.3 35 1.5 88 88 N 15 24 30.06 1018 10 16.0934 0 0
4:35 am 04:35 Cloudy 38 3.5 35 1.5 87 87 NNE 20 31 30.06 1018 10 16.0934 0 0
4:55 am 04:55 Cloudy 38 3.5 34 1.2 85 85 NNE 21 33 30.03 1017 10 16.0934 0 0
5:15 am 05:15 Cloudy 39 3.7 34 1.2 84 84 NNE 17 28 30.09 1019 10 16.0934 0 0
5:35 am 05:35 Cloudy 39 3.8 34 1 82 82 NNE 20 31 30.12 1020 10 16.0934 0 0
5:55 am 05:55 Cloudy 39 4.1 33 0.5 78 78 NE 18 30 30.12 1020 10 16.0934 0 0
6:15 am 06:15 Cloudy with Light Rain 39 3.7 33 0.7 81 81 NE 18 30 30.15 1021 10 16.0934 0 0
6:35 am 06:35 Cloudy with Light Rain 38 3.5 33 0.8 83 83 NE 23 37 30.12 1020 10 16.0934 0 0
6:55 am 06:55 Cloudy with Light Rain 38 3.1 33 0.5 83 83 ENE 25 41 30.21 1023 10 16.0934 0.01 0.254
7:15 am 07:15 Cloudy with Light Rain 37 2.5 33 0.3 86 86 NE 24 39 30.21 1023 5 8.0467 0.02 0.508
7:35 am 07:35 Cloudy with Light Rain 37 2.8 33 0.7 86 86 NE 21 33 30.21 1023 10 16.0934 0.02 0.508
7:55 am 07:55 Cloudy with Light Drizzle 37 3 33 0.7 85 85 NE 21 33 30.21 1023 10 16.0934 0.02 0.508
8:15 am 08:15 Cloudy with Light Drizzle 38 3.2 33 0.5 83 83 NNE 18 30 30.18 1022 10 16.0934 0 0
8:35 am 08:35 Cloudy with Light Rain 38 3.5 32 0.2 79 79 NNE 20 31 30.12 1020 10 16.0934 0 0
8:55 am 08:55 Cloudy 39 3.7 33 0.4 79 79 NNE 21 33 30.12 1020 10 16.0934 0 0
9:15 am 09:15 Cloudy with Light Rain 39 3.8 33 0.6 80 80 NE 21 33 30.12 1020 10 16.0934 0 0
9:35 am 09:35 Cloudy with Light Drizzle 39 3.8 33 0.8 81 81 NE 23 37 30.12 1020 10 16.0934 0 0
9:55 am 09:55 Cloudy with Light Rain 38 3.3 33 0.5 82 82 NE 21 33 30.12 1020 7 11.26538 0 0
10:15 am 10:15 Cloudy 39 3.7 33 0.7 81 81 NNE 20 31 30.12 1020 10 16.0934 0 0
10:35 am 10:35 Cloudy 39 3.9 32 0 76 76 NNE 15 24 30.12 1020 10 16.0934 0 0
10:55 am 10:55 Cloudy 40 4.3 33 0.5 77 77 NNE 21 33 30.12 1020 10 16.0934 0 0
11:15 am 11:15 Cloudy 40 4.5 32 0 73 73 NNE 23 37 30.12 1020 10 16.0934 0 0
11:35 am 11:35 Cloudy 40 4.5 32 -0.2 72 72 NNE 22 35 30.12 1020 10 16.0934 0 0
11:55 am 11:55 Cloudy 40 4.5 32 0 73 73 NNE 17 28 30.12 1020 10 16.0934 0 0
12:15 pm 12:15 Cloudy 40 4.5 32 0 73 73 NNE 22 35 30.12 1020 10 16.0934 0 0
12:35 pm 12:35 Cloudy 40 4.5 32 0 73 73 NNE 24 39 30.12 1020 10 16.0934 0 0
12:55 pm 12:55 Cloudy with Light Drizzle 40 4.5 32 0 73 73 NNE 23 37 30.12 1020 10 16.0934 0 0
1:15 pm 13:15 Cloudy with Light Drizzle 40 4.5 32 0 73 73 NNE 29 46 30.12 1020 10 16.0934 0 0
1:35 pm 13:35 Cloudy with Light Drizzle 40 4.4 32 0.1 74 74 NNE 25 41 30.15 1021 10 16.0934 0 0
1:55 pm 13:55 Cloudy with Light Drizzle 40 4.3 32 0.1 74 74 NNE 28 44 30.15 1021 10 16.0934 0 0
2:15 pm 14:15 Cloudy with Light Drizzle 40 4.3 32 0.2 75 75 NNE 24 39 30.12 1020 10 16.0934 0 0
2:35 pm 14:35 Cloudy 41 4.8 32 0 71 71 NNE 26 43 30.12 1020 10 16.0934 0 0
2:55 pm 14:55 Cloudy 42 5.4 33 0.3 70 70 NNE 26 43 30.09 1019 10 16.0934 0 0
3:15 pm 15:15 Cloudy 42 5.8 33 0.4 69 69 NNE 28 44 30.09 1019 10 16.0934 0 0
3:35 pm 15:35 Cloudy 42 5.8 32 0 67 67 N 33 54 30.09 1019 10 16.0934 0 0
3:55 pm 15:55 Cloudy 43 6 32 0 66 66 NNE 31 50 30.03 1017 10 16.0934 0 0
4:15 pm 16:15 Cloudy 43 6.1 32 0 65 65 NNE 31 50 30.03 1017 10 16.0934 0 0
4:35 pm 16:35 Cloudy 44 6.5 32 0 64 64 NNE 30 48 30.03 1017 10 16.0934 0 0
4:55 pm 16:55 Cloudy 43 6.1 32 0 65 65 NNE 28 44 30.03 1017 10 16.0934 0 0
5:15 pm 17:15 Cloudy 43 5.9 32 -0.2 65 65 N 26 43 30.06 1018 10 16.0934 0 0
5:35 pm 17:35 Cloudy 42 5.7 32 0 67 67 NNE 26 43 30.06 1018 10 16.0934 0 0
5:55 pm 17:55 Cloudy with Light Drizzle 42 5.4 32 0.1 69 69 NNE 29 46 30.06 1018 10 16.0934 0 0
6:15 pm 18:15 Cloudy with Light Rain 41 5.1 33 0.4 72 72 NNE 31 50 30.09 1019 10 16.0934 0 0
6:35 pm 18:35 Cloudy with Light Drizzle 40 4.6 32 0.2 73 73 NNE 22 35 30.06 1018 10 16.0934 0 0
6:55 pm 18:55 Cloudy with Light Drizzle 39 4.1 34 0.9 80 80 NNE 29 46 30.06 1018 5 8.0467 0 0
7:15 pm 19:15 Cloudy with Light Rain 39 3.7 35 1.5 86 86 NNE 23 37 30.06 1018 5 8.0467 0 0
7:35 pm 19:35 Cloudy with Light Rain 39 3.7 34 1.3 85 85 NNE 23 37 30.09 1019 7 11.26538 0 0
7:55 pm 19:55 Cloudy with Light Rain 39 3.8 34 1.3 84 84 NNE 24 39 30.06 1018 7 11.26538 0 0
8:15 pm 20:15 Cloudy with Light Rain 39 3.7 35 1.4 85 85 N 24 39 30.06 1018 5 8.0467 0.01 0.254
8:35 pm 20:35 Cloudy with Light Rain 39 3.7 35 1.8 88 88 NNE 23 37 30.06 1018 7 11.26538 0.02 0.508
8:55 pm 20:55 Cloudy with Light Rain 39 3.7 36 2 89 89 NNE 25 41 30.06 1018 7 11.26538 0.03 0.762
9:15 pm 21:15 Cloudy with Light Rain 38 3.5 35 1.8 89 89 NNE 25 41 30.06 1018 7 11.26538 0 0
9:35 pm 21:35 Cloudy with Light Rain 38 3.2 35 1.6 89 89 NNE 28 44 30.06 1018 5 8.0467 0.02 0.508
9:55 pm 21:55 Cloudy with Light Rain 37 3 34 1.3 89 89 NNE 28 44 30.06 1018 7 11.26538 0.03 0.762
10:15 pm 22:15 Cloudy with Light Rain 37 2.6 34 1 89 89 NNE 29 46 30.12 1020 7 11.26538 0 0
10:35 pm 22:35 Cloudy with Light Rain 37 2.5 33 0.7 88 88 NNE 22 35 30.12 1020 10 16.0934 0.01 0.254
10:55 pm 22:55 Cloudy with Light Rain 37 2.6 33 0.5 86 86 NNE 24 39 30.15 1021 5 8.0467 0.02 0.508
11:15 pm 23:15 Cloudy with Light Rain 37 2.7 33 0.4 85 85 NNE 22 35 30.15 1021 7 11.26538 0.01 0.254
11:35 pm 23:35 Windy with Snow Likely 37 2.5 33 0.4 86 86 NNE 25 41 30.15 1021 5 8.0467 0.03 0.762
11:55 pm 23:55 Windy with Snow Likely 36 2 33 0.4 89 89 NNE 25 41 30.09 1019 5 8.0467 0.05 1.27

Powered by AerisWeather